Weather History for Cavalier, ND

Change the Weather History Date:

Saturday, November 10, 2012

  Actual Average (KGAF) Record (KGAF)
Temperature  
Mean Temperature 28 °F -  
Max Temperature 32 °F 34 °F 63 °F (1961)
Min Temperature 24 °F 19 °F -7 °F (1986)
Degree Days  
Heating Degree Days 37    
Moisture  
Dew Point 28 °F    
Average Humidity 99    
Maximum Humidity 100    
Minimum Humidity 74    
Precipitation  
Precipitation 0.95 in - - ()
Sea Level Pressure  
Sea Level Pressure 29.79 in    
Wind  
Wind Speed 11 mph (NNE)    
Max Wind Speed 17 mph    
Max Gust Speed 24 mph    
Visibility 1 miles    
Events Fog , Rain , Snow    
Averages and records for this station are not official NWS values.
T = Trace of Precipitation, MM = Missing Value Source: NWS Daily Summary

Daily Weather History Graph

Daily Weather History Graph

Search for Another Location

Airport:

Trip Planner

Search our weather history database for the weather conditions in past years. The results will help you decide how hot, cold, wet, or windy it might be!

Date:

Astronomy

Nov. 10, 2012 Rise Set
Actual Time 7:32 AM CST 4:55 PM CST
Civil Twilight 6:58 AM CST 5:30 PM CST
Nautical Twilight 6:20 AM CST 6:07 PM CST
Astronomical Twilight 5:43 AM CST 6:44 PM CST
Moon 3:22 AM CST (11/10) 2:57 PM CST (11/10)
Length of Visible Light 10h 31m
Length of Day
9h 23m
Waning Crescent, 14% of the Moon is Illuminated
Nov 10
Waning Crescent
Nov 13
New
Nov 20
First Quarter
Nov 28
Full
Dec 6
Last Quarter

Hourly Weather History & Observations

Time (CST) Temp. Windchill Dew Point Humidity Pressure Visibility Wind Dir Wind Speed Gust Speed Precip Events Conditions
12:15 AM 28.4 °F 19.1 °F 21.2 °F 74% 30.05 in 7.0 mi NE 10.4 mph - N/A   Overcast
12:35 AM 28.4 °F 19.1 °F 23.0 °F 80% 30.04 in 3.0 mi NE 10.4 mph - N/A   Haze
12:55 AM 26.6 °F 16.8 °F 24.8 °F 93% 30.04 in 2.0 mi ENE 10.4 mph - N/A   Overcast
1:15 AM 26.6 °F 18.2 °F 26.6 °F 100% 30.03 in 1.8 mi NE 8.1 mph - N/A Rain Light Freezing Rain
1:35 AM 26.6 °F 18.2 °F 26.6 °F 100% 30.02 in 1.8 mi NE 8.1 mph - N/A Rain Light Freezing Rain
1:55 AM 26.6 °F 16.8 °F 26.6 °F 100% 30.01 in 2.0 mi NE 10.4 mph - N/A Rain Light Freezing Rain
2:15 AM 28.4 °F 19.7 °F 26.6 °F 93% 30.01 in 1.8 mi NNE 9.2 mph - N/A Rain Light Freezing Rain
2:35 AM 28.4 °F - 26.6 °F 93% 30.00 in 1.8 mi North - - 0.01 in Rain Light Freezing Rain
2:55 AM 28.4 °F - 28.4 °F 100% 29.99 in 1.8 mi North - - 0.02 in Rain Light Freezing Rain
3:15 AM 28.4 °F 18.5 °F 28.4 °F 100% 29.98 in 2.0 mi NE 11.5 mph - N/A Rain Light Freezing Rain
3:35 AM 28.4 °F - 28.4 °F 100% 29.97 in 2.0 mi North - - N/A Rain Light Freezing Rain
3:55 AM 28.4 °F - 28.4 °F 100% 29.96 in 1.8 mi North - - 0.01 in Rain Light Freezing Rain
4:35 AM 28.4 °F - 28.4 °F 100% 29.93 in 1.5 mi North - - 0.02 in Snow Light Snow
4:55 AM 28.4 °F - 28.4 °F 100% 29.93 in 4.0 mi North - - 0.04 in Rain Light Freezing Rain
5:15 AM 28.4 °F - 28.4 °F 100% 29.93 in 2.0 mi North - - N/A Rain Light Freezing Rain
6:35 AM 28.4 °F 20.4 °F 28.4 °F 100% 29.89 in 3.0 mi NE 8.1 mph - N/A Rain Light Freezing Rain
6:55 AM 28.4 °F 19.7 °F 28.4 °F 100% 29.88 in 3.0 mi NE 9.2 mph - N/A   Overcast
7:15 AM 28.4 °F 19.7 °F 28.4 °F 100% 29.88 in 1.5 mi NNE 9.2 mph - N/A Snow Light Snow
7:35 AM 28.4 °F 19.7 °F 28.4 °F 100% 29.88 in 2.0 mi NE 9.2 mph - 0.01 in   Overcast
7:55 AM 28.4 °F 19.7 °F 28.4 °F 100% 29.88 in 1.0 mi NE 9.2 mph - 0.01 in Snow Light Snow
8:15 AM 28.4 °F - 28.4 °F 100% 29.86 in 0.8 mi North - - N/A   Overcast
8:35 AM 28.4 °F - 28.4 °F 100% 29.86 in 1.0 mi North - - N/A   Overcast
8:55 AM 28.4 °F - 28.4 °F 100% 29.85 in 1.0 mi North - - N/A   Overcast
9:15 AM 28.4 °F - 28.4 °F 100% 29.85 in 1.0 mi North - - N/A   Overcast
9:35 AM 28.4 °F - 28.4 °F 100% 29.82 in 1.0 mi North - - N/A   Overcast
9:55 AM 28.4 °F - 28.4 °F 100% 29.83 in 1.0 mi North - - N/A   Overcast
10:15 AM 28.4 °F 19.1 °F 28.4 °F 100% 29.84 in 1.5 mi SE 10.4 mph - N/A   Overcast
10:35 AM 28.4 °F 19.1 °F 28.4 °F 100% 29.83 in 1.0 mi East 10.4 mph 16.1 mph N/A   Overcast
10:55 AM 28.4 °F 21.2 °F 28.4 °F 100% 29.82 in 1.2 mi SE 6.9 mph - N/A   Overcast
11:15 AM 28.4 °F 19.7 °F 28.4 °F 100% 29.81 in 1.2 mi SE 9.2 mph - N/A   Overcast
11:35 AM 30.2 °F 26.7 °F 30.2 °F 100% 29.80 in 1.2 mi SSE 3.5 mph - N/A   Overcast
11:55 AM 30.2 °F - 30.2 °F 100% 29.78 in 1.0 mi North - - N/A   Overcast
12:15 PM 30.2 °F - 30.2 °F 100% 29.78 in 0.8 mi North - - N/A   Overcast
12:35 PM 30.2 °F - 30.2 °F 100% 29.76 in 0.5 mi North - - N/A Fog Light Freezing Fog
12:55 PM 30.2 °F - 30.2 °F 100% 29.74 in 0.2 mi North - - N/A Fog Light Freezing Fog
1:15 PM 30.2 °F - 30.2 °F 100% 29.71 in 0.2 mi North - - N/A Fog Light Freezing Fog
1:35 PM 30.2 °F 20.2 °F 30.2 °F 100% 29.71 in 0.8 mi NE 12.7 mph 17.3 mph N/A   Overcast
1:55 PM 32.0 °F 23.0 °F 32.0 °F 100% 29.72 in 0.5 mi ENE 11.5 mph - N/A Fog Light Freezing Fog
2:15 PM 32.0 °F 24.8 °F 32.0 °F 100% 29.71 in 0.5 mi NNE 8.1 mph - N/A Fog Light Freezing Fog
2:35 PM 32.0 °F 24.8 °F 32.0 °F 100% 29.70 in 0.5 mi NNE 8.1 mph - N/A Fog Light Freezing Fog
2:55 PM 30.2 °F 20.2 °F 30.2 °F 100% 29.70 in 0.5 mi North 12.7 mph - N/A Rain Light Freezing Rain
3:15 PM 30.2 °F 20.2 °F 30.2 °F 100% 29.70 in 0.5 mi North 12.7 mph - N/A Rain Light Freezing Rain
3:35 PM 30.2 °F 21.3 °F 30.2 °F 100% 29.70 in 0.5 mi North 10.4 mph - N/A Rain Light Freezing Rain
3:55 PM 28.4 °F 18.5 °F 28.4 °F 100% 29.70 in 0.5 mi North 11.5 mph 18.4 mph N/A Rain Light Freezing Rain
4:15 PM 28.4 °F 18.5 °F 28.4 °F 100% 29.70 in 0.5 mi North 11.5 mph - 0.01 in Rain Light Freezing Rain
4:35 PM 28.4 °F 18.0 °F 28.4 °F 100% 29.70 in 0.5 mi North 12.7 mph 17.3 mph 0.05 in   Overcast
4:55 PM 28.4 °F 18.5 °F 28.4 °F 100% 29.70 in 0.2 mi North 11.5 mph 17.3 mph 0.10 in   Overcast
5:15 PM 28.4 °F 18.5 °F 28.4 °F 100% 29.69 in 0.5 mi North 11.5 mph - 0.01 in   Overcast
5:35 PM 28.4 °F 17.5 °F 28.4 °F 100% 29.69 in 0.8 mi North 13.8 mph 20.7 mph 0.03 in   Overcast
5:55 PM 28.4 °F 17.0 °F 28.4 °F 100% 29.68 in 0.8 mi North 15.0 mph 20.7 mph 0.04 in   Overcast
6:15 PM 26.6 °F 15.2 °F 26.6 °F 100% 29.68 in 1.0 mi North 13.8 mph 20.7 mph N/A Rain Light Freezing Rain
6:35 PM 26.6 °F 15.2 °F 26.6 °F 100% 29.68 in 0.8 mi North 13.8 mph 17.3 mph 0.01 in   Overcast
6:55 PM 26.6 °F 14.7 °F 26.6 °F 100% 29.68 in 0.8 mi North 15.0 mph - 0.03 in Rain Light Freezing Rain
7:15 PM 26.6 °F 15.2 °F 26.6 °F 100% 29.67 in 0.8 mi North 13.8 mph 17.3 mph 0.03 in Rain Light Freezing Rain
7:35 PM 26.6 °F 15.2 °F 26.6 °F 100% 29.67 in 0.8 mi North 13.8 mph 18.4 mph 0.07 in   Overcast
7:55 PM 26.6 °F 15.2 °F 26.6 °F 100% 29.67 in 0.8 mi North 13.8 mph - 0.11 in   Overcast
8:15 PM 26.6 °F 15.2 °F 26.6 °F 100% 29.66 in 0.8 mi North 13.8 mph 18.4 mph 0.02 in   Overcast
8:35 PM 26.6 °F 15.2 °F 26.6 °F 100% 29.66 in 0.8 mi North 13.8 mph - 0.05 in   Overcast
8:55 PM 26.6 °F 15.2 °F 26.6 °F 100% 29.65 in 0.8 mi North 13.8 mph 24.2 mph 0.06 in   Overcast
9:15 PM 26.6 °F 13.8 °F 26.6 °F 100% 29.63 in 1.0 mi North 17.3 mph - N/A Rain Light Freezing Rain
9:35 PM 24.8 °F 12.4 °F 24.8 °F 100% 29.62 in 0.8 mi North 15.0 mph - 0.01 in Rain Light Freezing Rain
10:15 PM 24.8 °F 14.0 °F 24.8 °F 100% 29.58 in 1.0 mi NNW 11.5 mph 21.9 mph N/A Rain Light Freezing Rain
10:35 PM 24.8 °F 12.4 °F 24.8 °F 100% 29.60 in 1.0 mi NNW 15.0 mph 20.7 mph N/A Rain Light Freezing Rain
10:55 PM 24.8 °F 12.4 °F 24.8 °F 100% 29.60 in 1.0 mi NNW 15.0 mph 20.7 mph 0.02 in Rain Light Freezing Rain
11:15 PM 24.8 °F 14.0 °F 24.8 °F 100% 29.63 in 0.8 mi NW 11.5 mph - 0.10 in   Overcast
11:35 PM 24.8 °F 12.9 °F 24.8 °F 100% 29.62 in 0.8 mi NNW 13.8 mph - 0.34 in Snow Light Snow
11:55 PM 24.8 °F 13.4 °F 24.8 °F 100% 29.62 in 0.8 mi NW 12.7 mph - 0.50 in Snow Light Snow